SCP
0 0 0 0 -0 -0 -0 0 0 0 0 0 0 0 0 -0 0 0 0 0 0 1 1 1 0 0 0 0 0 -0 -0 -0
0 0 -0 0 0 0 0 0 0 0 0 0 0 0 -0 0 0 0 0 0 0 1 1 1 0 0 0 0 0 0 0 0
0 -0 0 -0 -0 0 0 0 0 0 0 0 0 0 0 0 0 0 0 0 0 1 1 1 1 0 0 0 0 -0 0 0
0 -0 0 -0 0 0 0 0 0 0 0 0 0 0 0 0 0 0 0 0 0 1 1 1 1 0 0 0 0 -0 0 0
0 0 0 -0 0 0 -0 0 0 0 0 0 0 0 0 0 0 0 0 0 0 0 1 1 1 1 1 1 1 0 0 0
0 0 0 0 0 0 0 0 -0 0 0 0 0 0 0 0 0 0 0 0 0 0 1 1 1 2 1 1 1 1 1 0
0 0 0 0 0 0 0 0 -0 0 0 -0 -0 0 0 0 0 0 0 0 0 1 0 1 1 1 1 1 1 1 1 1
0 0 0 0 0 -0 -0 0 0 0 0 0 0 0 0 0 0 0 0 0 1 1 1 1 1 1 1 1 1 1 1 1
0 0 0 0 0 0 0 0 0 0 0 0 0 0 0 0 0 0 0 0 1 1 1 1 0 1 2 2 1 1 1 1
0 0 0 0 0 0 0 0 0 0 0 0 0 0 0 0 0 0 0 0 1 1 1 1 1 1 1 2 2 2 1 1
0 0 0 0 0 0 0 0 0 0 0 0 0 0 0 0 0 0 0 0 1 1 1 1 1 1 1 2 2 2 1 1
0 0 0 0 0 0 0 0 0 0 0 0 0 0 0 0 0 0 0 0 0 1 1 1 1 1 1 2 2 1 1 1
0 0 0 0 0 0 0 0 0 0 0 0 0 0 0 0 0 0 0 0 0 0 1 1 1 0 2 2 2 1 1 1
0 0 0 0 -0 0 0 0 0 0 0 0 0 0 0 0 0 0 0 0 0 0 0 1 1 1 2 2 2 1 1 1
0 0 0 0 0 0 0 0 0 0 0 0 0 0 0 0 0 0 0 0 0 0 0 1 1 1 2 2 2 1 1 1
0 0 0 0 0 0 0 0 0 0 0 0 0 0 0 0 0 0 0 0 0 1 1 2 2 3 2 1 1 0 1 1
0 0 0 0 0 0 0 0 0 0 0 0 0 0 0 0 0 0 0 0 0 1 1 2 2 4 2 1 0 0 0 1
0 0 0 0 0 0 0 0 0 0 0 0 0 0 0 0 0 0 0 0 1 2 2 2 3 2 1 1 0 0 0 0
0 0 0 0 0 0 0 0 0 0 0 0 0 0 0 0 0 0 0 1 2 3 2 2 2 1 0 0 0 0 0 0
0 0 0 0 -0 0 -0 -0 -0 0 0 0 -0 0 0 0 0 0 0 1 2 1 1 1 1 1 0 0 0 0 0 0
Wind_Speed_500mb
7 7 11 9 11 7 9 17 39 32 30 17 17 30 39 36 36 33 32 36 35 34 35 34 34 33 33 33 31 27 22 17
3 14 13 11 10 15 16 3 13 19 10 12 22 52 32 27 27 31 32 33 32 33 36 36 39 39 39 39 38 32 27 22
8 11 13 16 29 50 13 12 9 16 12 2 37 35 36 31 25 23 30 29 33 41 41 41 43 44 45 45 43 38 34 28
10 15 18 3 32 18 10 28 17 18 34 17 26 27 35 35 29 24 19 23 31 41 46 45 48 49 50 50 48 45 42 35
8 15 18 8 19 18 15 8 24 28 14 31 38 29 20 27 30 32 28 29 36 44 51 51 52 54 55 55 53 51 48 43
8 8 19 10 38 26 26 10 5 20 7 12 46 32 29 23 33 41 39 50 50 52 49 52 54 61 60 59 58 57 55 50
11 15 19 12 9 61 39 24 1 15 19 15 30 32 31 40 44 48 51 57 63 61 57 58 59 60 66 65 64 62 62 59
19 23 12 39 24 61 38 45 32 7 28 12 13 22 41 41 40 52 58 59 60 65 71 68 69 63 69 73 72 72 73 70
39 41 38 36 36 60 43 25 28 32 41 43 33 31 38 41 39 34 34 35 46 61 74 75 73 77 73 75 77 79 81 77
48 52 46 35 60 35 50 54 58 58 57 54 44 45 47 67 47 48 52 56 50 43 54 73 77 77 81 78 76 81 84 82
49 64 64 59 54 54 64 71 73 72 71 63 60 49 50 55 61 59 57 52 51 49 40 54 70 73 79 85 81 74 77 82
48 57 59 41 51 62 74 81 70 69 72 68 64 64 66 75 71 60 60 56 56 55 46 34 41 57 65 74 79 78 68 66
44 31 26 45 47 53 68 68 68 75 79 73 73 67 74 81 70 60 62 68 62 59 52 42 45 52 60 64 75 81 68 55
41 36 28 22 66 41 51 52 56 58 76 83 95 100 100 81 77 72 72 52 62 57 44 43 44 53 54 56 65 75 65 54
42 16 10 26 84 26 54 60 53 57 71 80 89 88 87 83 83 84 65 51 58 48 42 39 44 51 50 53 61 66 56 48
27 13 33 42 66 39 65 70 67 77 88 86 87 93 98 89 86 93 67 51 58 48 34 33 46 48 53 56 59 56 50 47
4 23 33 39 43 37 41 42 38 58 65 76 88 82 84 75 74 68 48 56 60 45 36 38 48 57 59 62 55 52 42 42
13 18 19 24 47 51 45 47 58 72 72 73 75 83 86 81 53 47 43 43 52 45 37 45 52 59 64 65 49 44 41 40
22 23 43 19 34 26 35 32 48 53 66 70 65 69 63 51 52 51 49 49 49 49 45 44 45 51 52 56 48 43 39 37
34 25 28 14 38 34 37 45 33 44 62 59 74 77 77 60 61 60 51 44 45 43 41 38 42 47 49 51 49 43 38 36
Wind_Direction_500mb
142 192 197 206 219 210 342 348 6 341 348 109 149 159 136 145 157 171 187 182 182 187 192 192 192 192 192 194 197 197 193 188
162 236 263 237 242 278 266 30 354 331 316 85 138 153 145 140 161 182 193 186 191 197 198 199 200 201 203 204 205 206 206 205
255 242 254 262 292 278 226 121 153 302 18 44 174 176 164 160 163 187 200 195 205 209 205 205 207 208 211 213 213 213 214 217
247 264 272 224 288 307 206 191 199 177 213 178 158 166 167 176 182 187 209 217 221 220 216 214 216 216 215 217 218 219 219 221
267 279 301 311 309 298 259 222 176 218 178 175 179 197 200 196 198 201 213 240 234 228 220 221 226 224 222 222 222 223 223 225
255 245 274 332 323 312 347 96 216 130 170 192 193 202 202 220 216 213 224 226 229 234 233 230 230 232 229 228 227 228 229 228
228 232 248 43 25 275 321 325 230 127 153 191 200 205 208 218 214 219 225 232 229 233 238 245 240 239 232 232 232 231 233 233
218 230 281 310 302 292 310 320 306 301 333 251 275 221 224 221 226 230 235 236 233 235 235 241 245 240 238 233 232 234 234 234
251 253 271 284 286 274 299 299 281 309 315 304 312 300 208 235 228 241 261 238 238 237 237 241 247 245 241 238 235 237 238 238
245 259 262 256 270 273 269 267 279 286 291 292 295 299 279 273 266 259 272 274 275 270 242 238 243 249 247 246 242 239 241 241
242 251 253 260 263 264 272 279 282 284 286 291 282 282 275 280 274 274 266 261 265 261 250 235 241 246 249 252 246 244 243 243
253 250 256 256 263 268 271 277 283 283 285 288 287 289 288 285 276 278 274 258 259 257 254 249 244 245 252 255 254 247 243 242
259 253 262 259 263 253 258 271 276 277 278 283 287 281 283 291 275 285 282 268 254 247 248 263 272 260 258 267 261 246 241 237
250 244 251 252 262 254 261 265 260 272 282 283 282 282 284 276 277 277 277 282 242 233 248 264 267 268 271 270 258 243 241 237
250 223 218 208 261 253 258 259 267 271 274 274 278 276 279 276 273 272 267 264 236 240 252 266 273 263 266 261 249 239 238 234
254 213 225 239 260 261 265 266 269 272 270 269 269 270 278 278 274 273 258 253 239 241 251 270 265 254 249 242 234 230 226 224
230 202 223 239 262 257 248 252 257 261 264 261 264 271 275 273 272 258 245 243 239 245 261 266 246 238 229 223 209 211 212 207
290 286 245 244 252 263 262 263 256 259 264 257 266 277 279 274 252 237 247 242 241 251 256 253 242 229 222 214 200 203 208 221
264 303 289 300 278 275 272 261 261 267 270 270 273 277 278 268 230 237 239 240 244 247 242 238 231 215 207 211 214 217 217 231
246 257 261 205 280 266 267 267 264 249 255 265 275 279 277 259 234 235 234 230 235 232 230 220 208 204 199 201 205 211 221 221
Wind_Speed_850mb
7 7 11 9 11 7 9 17 39 32 30 17 17 30 39 36 36 33 32 36 35 34 35 34 34 33 33 33 31 27 22 17
3 14 13 11 10 15 16 3 13 19 10 12 22 52 32 27 27 31 32 33 32 33 36 36 39 39 39 39 38 32 27 22
8 11 13 16 29 50 13 12 9 16 12 2 37 35 36 31 25 23 30 29 33 41 41 41 43 44 45 45 43 38 34 28
10 15 18 3 32 18 10 28 17 18 34 17 26 27 35 35 29 24 19 23 31 41 46 45 48 49 50 50 48 45 42 35
8 15 18 8 19 18 15 8 24 28 14 31 38 29 20 27 30 32 28 29 36 44 51 51 52 54 55 55 53 51 48 43
8 8 19 10 38 26 26 10 5 20 7 12 46 32 29 23 33 41 39 50 50 52 49 52 54 61 60 59 58 57 55 50
11 15 19 12 9 61 39 24 1 15 19 15 30 32 31 40 44 48 51 57 63 61 57 58 59 60 66 65 64 62 62 59
19 23 12 39 24 61 38 45 32 7 28 12 13 22 41 41 40 52 58 59 60 65 71 68 69 63 69 73 72 72 73 70
39 41 38 36 36 60 43 25 28 32 41 43 33 31 38 41 39 34 34 35 46 61 74 75 73 77 73 75 77 79 81 77
48 52 46 35 60 35 50 54 58 58 57 54 44 45 47 67 47 48 52 56 50 43 54 73 77 77 81 78 76 81 84 82
49 64 64 59 54 54 64 71 73 72 71 63 60 49 50 55 61 59 57 52 51 49 40 54 70 73 79 85 81 74 77 82
48 57 59 41 51 62 74 81 70 69 72 68 64 64 66 75 71 60 60 56 56 55 46 34 41 57 65 74 79 78 68 66
44 31 26 45 47 53 68 68 68 75 79 73 73 67 74 81 70 60 62 68 62 59 52 42 45 52 60 64 75 81 68 55
41 36 28 22 66 41 51 52 56 58 76 83 95 100 100 81 77 72 72 52 62 57 44 43 44 53 54 56 65 75 65 54
42 16 10 26 84 26 54 60 53 57 71 80 89 88 87 83 83 84 65 51 58 48 42 39 44 51 50 53 61 66 56 48
27 13 33 42 66 39 65 70 67 77 88 86 87 93 98 89 86 93 67 51 58 48 34 33 46 48 53 56 59 56 50 47
4 23 33 39 43 37 41 42 38 58 65 76 88 82 84 75 74 68 48 56 60 45 36 38 48 57 59 62 55 52 42 42
13 18 19 24 47 51 45 47 58 72 72 73 75 83 86 81 53 47 43 43 52 45 37 45 52 59 64 65 49 44 41 40
22 23 43 19 34 26 35 32 48 53 66 70 65 69 63 51 52 51 49 49 49 49 45 44 45 51 52 56 48 43 39 37
34 25 28 14 38 34 37 45 33 44 62 59 74 77 77 60 61 60 51 44 45 43 41 38 42 47 49 51 49 43 38 36
Wind_Direction_850mb
142 192 197 206 219 210 342 348 6 341 348 109 149 159 136 145 157 171 187 182 182 187 192 192 192 192 192 194 197 197 193 188
162 236 263 237 242 278 266 30 354 331 316 85 138 153 145 140 161 182 193 186 191 197 198 199 200 201 203 204 205 206 206 205
255 242 254 262 292 278 226 121 153 302 18 44 174 176 164 160 163 187 200 195 205 209 205 205 207 208 211 213 213 213 214 217
247 264 272 224 288 307 206 191 199 177 213 178 158 166 167 176 182 187 209 217 221 220 216 214 216 216 215 217 218 219 219 221
267 279 301 311 309 298 259 222 176 218 178 175 179 197 200 196 198 201 213 240 234 228 220 221 226 224 222 222 222 223 223 225
255 245 274 332 323 312 347 96 216 130 170 192 193 202 202 220 216 213 224 226 229 234 233 230 230 232 229 228 227 228 229 228
228 232 248 43 25 275 321 325 230 127 153 191 200 205 208 218 214 219 225 232 229 233 238 245 240 239 232 232 232 231 233 233
218 230 281 310 302 292 310 320 306 301 333 251 275 221 224 221 226 230 235 236 233 235 235 241 245 240 238 233 232 234 234 234
251 253 271 284 286 274 299 299 281 309 315 304 312 300 208 235 228 241 261 238 238 237 237 241 247 245 241 238 235 237 238 238
245 259 262 256 270 273 269 267 279 286 291 292 295 299 279 273 266 259 272 274 275 270 242 238 243 249 247 246 242 239 241 241
242 251 253 260 263 264 272 279 282 284 286 291 282 282 275 280 274 274 266 261 265 261 250 235 241 246 249 252 246 244 243 243
253 250 256 256 263 268 271 277 283 283 285 288 287 289 288 285 276 278 274 258 259 257 254 249 244 245 252 255 254 247 243 242
259 253 262 259 263 253 258 271 276 277 278 283 287 281 283 291 275 285 282 268 254 247 248 263 272 260 258 267 261 246 241 237
250 244 251 252 262 254 261 265 260 272 282 283 282 282 284 276 277 277 277 282 242 233 248 264 267 268 271 270 258 243 241 237
250 223 218 208 261 253 258 259 267 271 274 274 278 276 279 276 273 272 267 264 236 240 252 266 273 263 266 261 249 239 238 234
254 213 225 239 260 261 265 266 269 272 270 269 269 270 278 278 274 273 258 253 239 241 251 270 265 254 249 242 234 230 226 224
230 202 223 239 262 257 248 252 257 261 264 261 264 271 275 273 272 258 245 243 239 245 261 266 246 238 229 223 209 211 212 207
290 286 245 244 252 263 262 263 256 259 264 257 266 277 279 274 252 237 247 242 241 251 256 253 242 229 222 214 200 203 208 221
264 303 289 300 278 275 272 261 261 267 270 270 273 277 278 268 230 237 239 240 244 247 242 238 231 215 207 211 214 217 217 231
246 257 261 205 280 266 267 267 264 249 255 265 275 279 277 259 234 235 234 230 235 232 230 220 208 204 199 201 205 211 221 221